Location: B?jaj?g
(11.7167°N, 92.6667°E)
Time: 13:43:54
(UTC+00:00)

Cosmos 1174 - Pass Details

Date: 18 September 2020
Orbit: 362 x 1155 km, 66.1° (Epoch: 27 October)

Event Time Altitude Azimuth Distance (km) Brightness Sun altitude
Rises 12:33:25 0° 200° (SSW) 2,429 7.3 -11.9°
Reaches altitude 10° 12:35:19 10° 199° (SSW) 1,641 6.4 -12.4°
Maximum altitude 12:38:56 85° 111° (ESE) 555 3.7 -13.3°
Drops below altitude 10° 12:43:31 10° 22° (NNE) 2,063 6.6 -14.4°
Sets 12:46:08 0° 22° (NNE) 3,124 7.5 -15.0°
